www.pogodaiklimat.ru

Погода и климат >> Архив погоды >> Кувейт >> Kuwait


АРХИВ ПОГОДЫ в Kuwait

Время (UTC), дата Ветер
(напр.,м/с)
 
Видим.   Явления Облачность Т
(С)
Тd
(С)
f
(%)
Тe
(С)
Тes
(С)
Комфортность P
(гПа)
Po
(гПа)
Тmin
(С)
Tmax
(С)
R
(мм)
R24
(мм)
S
(см)
06 12.10 штиль 0 7000 м мгла ясно +32.9 +15.6 35 +35 +44 душно 1011.7 1012.0
09 12.10 штиль 0 8000 м мгла ясно +39.7 +10.5 17 +38 +56 опасность
солнечного
удара
1010.5 1011.0
12 12.10 В 5 10 км ясно +36.7 +16.2 30 +39 +42 очень
душно
1009.6 1010.0
15 12.10 ЮВ 5 7000 м мгла ясно +32.1 +21.9 55 +41 +41 опасность
перегрева
1010.2 1010.0
18 12.10 Ю 3 6000 м мгла ясно +28.3 +22.4 70 +37 +37 очень
душно
1011.3 1011.0
21 12.10 Ю 2 6000 м мгла ясно +25.5 +19.9 71 +31 +31 очень
душно
1011.8 1012.0 +24.0 +41.9
00 13.10 Ю 2 2000 м дымка ясно +24.1 +22.9 93 +32 +32 очень
душно
1011.6 1012.0
03 13.10 штиль 0 700 м туман ясно +22.9 +22.5 98 +31 +31 очень
душно
1012.5 1013.0
06 13.10 СЗ 3 6000 м мгла {туман} ясно +31.4 +22.3 59 +41 +46 опасность
перегрева
1014.1 1014.0
09 13.10 СВ 5 6000 м мгла ясно +34.2 +23.0 52 +44 +52 опасность
перегрева
1013.4 1013.0
12 13.10 В 4 6000 м мгла ясно +33.9 +24.4 58 +47 +51 опасность
перегрева
1011.9 1012.0
15 13.10 ЮВ 3 7000 м мгла 6/0
[Ac trans Ci]
+31.6 +24.4 66 +44 +44 опасность
перегрева
1012.3 1012.0
18 13.10 ЮВ 2 6000 м мгла 3/0
[Ci fib]
+29.2 +24.4 75 +41 +41 опасность
перегрева
1013.4 1013.0
21 13.10 Ю 4 4000 м дымка 3/0
[Ci fib]
+27.7 +24.9 85 +40 +40 очень
душно
1013.5 1014.0 +22.5 +36.3
00 14.10 ЮВ 2 3000 м дымка ясно +25.4 +24.1 93 +35 +35 очень
душно
1013.5 1014.0
03 14.10 штиль 0 700 м туман ясно +24.4 +23.9 97 +33 +33 очень
душно
1014.3 1014.0
06 14.10 ЮЗ 5 6000 м мгла ясно +30.9 +24.4 68 +43 +47 опасность
перегрева
1015.2 1015.0
09 14.10 ЮЗ 2 10 км ясно +38.0 +22.8 42 +39 +52 опасность
солнечного
удара
1013.3 1013.0
12 14.10 В 3 7000 м мгла ясно +35.7 +21.9 45 +44 +48 опасность
перегрева
1011.5 1012.0
15 14.10 В 4 7000 м мгла ясно +31.9 +24.3 64 +44 +44 опасность
перегрева
1011.6 1012.0
18 14.10 Ю 3 7000 м мгла ясно +29.1 +23.2 71 +39 +39 очень
душно
1013.1 1013.0
21 14.10 Ю 3 6000 м ясно +27.6 +23.3 77 +37 +37 очень
душно
1013.0 1013.0 +23.9 +39.8
00 15.10 Ю 4 5000 м дымка ясно +27.7 +24.6 83 +39 +39 очень
душно
1012.8 1013.0
03 15.10 Ю 2 3000 м дымка ясно +25.1 +23.5 91 +34 +34 очень
душно
1013.6 1014.0
06 15.10 СВ 9 400 м пыльная буря 5/3 1000 м
[Sc diur, vesp Ac trans]
+28.7 +15.8 46 +32 +32 душно 1017.3 1017.0
09 15.10 В 8 5000 м пыль 4/0
[Ci fib]
+33.0 +14.9 34 +35 +37 душно 1014.7 1015.0
12 15.10 ЮВ 3 7000 м мгла 3/0
[Ac trans]
+33.8 +17.9 39 +38 +41 очень
душно
1013.1 1013.0
15 15.10 ЮВ 2 10 км ясно +32.3 +17.3 41 +36 +36 очень
душно
1013.7 1014.0
18 15.10 ЮВ 2 7000 м мгла ясно +29.3 +22.4 66 +38 +38 очень
душно
1014.4 1014.0
21 15.10 ЮВ 2 10 км ясно +25.7 +17.4 60 +30 +30 душно 1013.8 1014.0 +24.5 +34.4
00 16.10 Ю 2 4500 м мгла ясно +23.6 +17.0 66 +27 +27 жарко 1013.5 1014.0
03 16.10 Ю 2 2800 м мгла ясно +23.5 +16.9 66 +27 +27 душно 1014.4 1014.0
06 16.10 С 3 2500 м пыль 5/0
[Ci fib]
+30.6 +16.4 42 +34 +38 очень
душно
1016.0 1016.0
09 16.10 СВ 3 4000 м пыль 3/0
[Ci fib]
+34.4 +19.0 40 +39 +50 очень
душно
1013.9 1014.0
12 16.10 В 2 6000 м мгла ясно +35.1 +13.5 27 +36 +41 очень
жарко
1012.6 1013.0
15 16.10 ЮВ 2 6000 м мгла ясно +32.4 +14.7 34 +34 +34 очень
жарко
1012.5 1013.0
18 16.10 Ю 2 6000 м мгла ясно +27.6 +15.4 47 +30 +30 жарко 1013.5 1014.0
21 16.10 штиль 0 6000 м мгла ясно +25.7 +17.6 61 +30 +30 душно 1012.9 1013.0 +22.5 +36.3
00 17.10 штиль 0 8000 м мгла ясно +24.3 +17.7 67 +28 +28 душно 1012.3 1012.0
03 17.10 Ю 3 6000 м мгла ясно +23.1 +17.4 70 +28 +28 душно 1013.1 1013.0
06 17.10 ЮЗ 2 5000 м мгла ясно +30.3 +15.4 40 +33 +39 душно 1014.2 1014.0
09 17.10 штиль 0 6000 м мгла ясно +36.9 +13.0 24 +37 +54 опасность
солнечного
удара
1012.5 1013.0
12 17.10 В 4 6000 м мгла ясно +36.0 +14.5 28 +37 +40 душно 1010.6 1011.0
15 17.10 В 3 10 км ясно +32.3 +17.0 40 +36 +36 очень
душно
1011.1 1011.0
18 17.10 Ю 4 8000 м мгла ясно +28.2 +19.1 58 +34 +34 очень
душно
1011.8 1012.0
21 17.10 Ю 2 5000 м мгла ясно +25.6 +18.5 65 +30 +30 душно 1011.9 1012.0 +22.7 +38.1
00 18.10 Ю 3 5000 м мгла 3/0
[Ac trans]
+24.4 +18.5 70 +29 +29 душно 1011.5 1012.0
03 18.10 Ю 3 4000 м пыль 3/0
[Ac trans]
+23.2 +18.2 73 +29 +29 душно 1012.2 1012.0
06 18.10 Ю 4 7000 м мгла 3/0
[Ci fib]
+29.1 +19.2 55 +35 +39 очень
душно
1013.0 1013.0
09 18.10 штиль 0 8000 м мгла 3/0
[Ci fib]
+37.1 +19.4 36 +36 +52 опасность
солнечного
удара
1011.7 1012.0
12 18.10 В 3 6000 м мгла ясно +33.4 +19.4 44 +39 +43 очень
душно
1010.4 1010.0
15 18.10 ЮВ 4 6000 м мгла ясно +30.8 +19.8 52 +37 +37 очень
душно
1010.8 1011.0
18 18.10 Ю 3 10 км ясно +27.0 +17.9 57 +31 +31 душно 1012.0 1012.0
21 18.10 Ю 2 10 км ясно +24.8 +19.6 73 +30 +30 душно 1012.4 1012.0 +22.8 +38.0
00 19.10 Ю 4 4000 м дымка ясно +24.6 +22.2 87 +32 +32 очень
душно
1012.2 1012.0
03 19.10 штиль 0 3000 м дымка ясно +22.6 +21.1 91 +30 +30 очень
душно
1013.2 1013.0

 

Местоположение метеостанции Kuwait (Кувейт): широта 29.22 долгота 47.97 высота над уровнем моря 48 м.

В архиве по умолчанию представлена погода в Kuwait за последнюю неделю. Архивные данные за месяц целиком и за предыдущие месяцы, начиная с января 2011 года, Вы можете получить, выбрав интересующий диапазон дат из раскрывающегося списка и нажав кнопку "Ввод!".


*Определитесь, кто Вы:
робот инопланетянин человек

Внимание! Время в таблицах - всемирное. Для получения местного времени необходимо прибавить поправку, которая в Kuwait равна 3 ч.

Смотрите также архив погоды в соседних городах и на ближайших метеорологических станциях:

Погода в Experimental Farm (Кувейт) (8 км)
Погода в Kuwait City (Кувейт) (14 км)
Погода в Al-Shuaiba (Кувейт) (19 км)
Погода в Sulaibiya (Кувейт) (25 км)
Погода в Jahra (Кувейт) (31 км)
Погода в Failaka Island (Кувейт) (41 км)
Погода в Minagish (Кувейт) (46 км)
Погода в Juluiah Port (Кувейт) (49 км)
Погода в Jal Aliyah (Кувейт) (58 км)
Погода в Sabriyah (Кувейт) (60 км)

Пояснения к столбцам:

Ветер - указаны скорость ветра в м/с - средняя за 10 мин, порывы в срок и между сроками (в фигурных скобках) и направление, откуда дует ветер: С - северный, СВ - северо-восточный, В - восточный, ЮВ - юго-восточный, Ю - южный, ЮЗ - юго-западный, З - западный, СЗ - северо-западный.
Видимость - горизонтальная дальность видимости в метрах или километрах. При видимости от 1 до 10 км при отсутствии осадков обычно наблюдается дымка, при ухудшении видимости до 1 км и менее - туман. В сухую погоду видимость может ухудшаться дымом, пылью или мглою.
Явления - указаны атмосферные явления, наблюдавшиеся в срок или в последний час перед сроком; фигурными скобками обозначены явления, наблюдавшиеся между сроками (за 1-3 часа до срока); квадратными скобками обозначены град или гололедные отложения с указанием их диаметра в мм.
Облачность - указаны через наклонную черту общая и нижняя облачность в баллах и высота нижней границы облаков в метрах; квадратными скобками обозначены формы облаков: Ci - перистые, Cs - перисто-слоистые, Cc - перисто-кучевые, Ac - высококучевые, As - высокослоистые, Sc - слоисто-кучевые, Ns - слоисто-дождевые, Cu - кучевые, Cb - кучево-дождевые. Подробнее классификацию облаков см. в Атласе облаков (PDF).
T - Температура воздуха - температура, измеренная на высоте 2 м над землей.
Td - Температура точки росы - температура, при понижении до которой содержащийся в воздухе водяной пар достигнет насыщения.
f - Относительная влажность воздуха - влажноcть воздуха, измеренная на высоте 2 м над землей.
Te - Эффективная температура - температура, которую ощущает одетый по сезону человек в тени. Характеристика душности погоды. При расчете учитывается влияние влажности воздуха и скорости ветра на теплоощущения человека.
Tes - Эффективная температура на солнце - температура, которую ощущает человек, с поправкой на солнечный нагрев. Характеристика знойности погоды. Зависит от высоты солнца над горизонтом, облачности и скорости ветра. Ночью, в пасмурную погоду, а также при ветре 12 м/с и более поправка равна нулю.
P - Атмосферное давление - приведенное к уровню моря атмосферное давление.
Po - Атмосферное давление - измеренное на уровне метеостанции атмосферное давление.
Tmin - Минимальная температура - минимум температуры воздуха на высоте 2 м над землей.
Tmax - Максимальная температура - максимум температуры воздуха на высоте 2 м над землей.
R - Количество осадков - Количество выпавших осадков за период времени, мм. При наведении курсора мыши на число - период времени, за который выпало указанное количество осадков.
R24 - Количество осадков - Количество выпавших осадков за 24 часа, мм.
S - Снежный покров - Высота снежного покрова, см. При наведении курсора мыши на число - состояние снежного покрова и степень покрытия местности в баллах.